Regional Weather Roundup
Issued by NWS Wakefield, VA

Home | Current Version | Previous Version | Text Only | Print | Product List | Glossary On
Versions: 1 2 3 4 5 6 7 8 9 10 11 12 13 14 15 16 17 18 19 20 21 22 23 24 25 26 27
000
ASUS41 KAKQ 301215
RWRAKQ

REGIONAL WEATHER ROUNDUP
NATIONAL WEATHER SERVICE WAKEFIELD VA
800 AM EDT SAT APR 30 2016

Note: "fair" indicates few or no clouds below 12,000 feet with no
significant weather and/or obstructions to visibility. * = Denotes
station may not report precipitation (e.g., rain,snow,etc.),
thunder or fog.

VAZ042-051-052>054-056-301300-
NORTHERN VIRGINIA

CITY           SKY/WX    TMP DP  RH WIND       PRES   REMARKS
WASH NATIONAL  CLOUDY    51  47  86 E8        30.19R
DULLES         CLOUDY    51  49  92 NE5       30.19R FOG
FORT BELVOIR   CLOUDY    52  48  86 VRB1      30.19R
QUANTICO       CLOUDY    53  49  86 E9        30.19R
FREDERICKSBRG* CLOUDY    53  53 100 CALM      30.17S
STAFFORD*      CLOUDY    52  49  90 E5        30.21R
WARRENTON      CLOUDY    54  47  79 E3        30.18R HAZE
CULPEPER*      CLOUDY    54  52  95 CALM      30.18S FOG
MANASSAS*      CLOUDY    54  54 100 E3        30.18R
LEESBURG*      CLOUDY    52  52 100 SE3       30.19R FOG
WINCHESTER     FOG       52  50  93 CALM      30.17R VSB 3/4
FRONT ROYAL*   CLOUDY    52  50  93 CALM      30.16R
LURAY*         CLOUDY    52  52 100 NE3       30.16S FOG
$$

VAZ048-049-060>072-079>083-301300-
CENTRAL AND SOUTH CENTRAL VIRGINIA

CITY           SKY/WX    TMP DP  RH WIND       PRES   REMARKS
RICHMOND       CLOUDY    53  49  86 NE6       30.17R
CHESTERFIELD*  CLOUDY    54  41  62 NE3       30.18R
PETERSBURG*    CLOUDY    56  55  99 NE5       30.17R
HANOVER        CLOUDY    53  48  83 CALM      30.18R
TAPPAHANNOCK*  CLOUDY    54  51  91 NE5       30.18R
QUINTON*       CLOUDY    52  50  92 N6        30.17R
CHARLOTTSVILLE CLOUDY    54  51  90 NE5       30.16R
GORDONSVILLE*  CLOUDY    53  52  98 E3        30.16S FOG
ORANGE*        CLOUDY    54  52  94 CALM      30.19R FOG
LOUISA*        CLOUDY    55  54  94 NE3       30.16R FOG
BUMPASS*       CLOUDY    52  50  95 CALM      30.17R
FARMVILLE*     CLOUDY    56  56 100 E5        30.14F FOG
CREWE*         CLOUDY    54  54 100 E3        30.16R
FORT PICKETT*  NOT AVBL
CHASE CITY*    CLOUDY    55  53  94 CALM      30.14S
CLARKSVILLE*   CLOUDY    55  55 100 NE6       30.13R
SOUTH HILL*    CLOUDY    54  53  97 CALM      30.20S
LAWRENCEVILLE* CLOUDY    54  52  95 NE7       30.15R
EMPORIA*       CLOUDY    54  52  94 N6        30.17R
$$

VAZ088>098-301300-
SOUTHEAST VIRGINIA

CITY           SKY/WX    TMP DP  RH WIND       PRES   REMARKS
NORFOLK        CLOUDY    54  51  90 NE7       30.15R
VIRGINIA BEACH DRIZZLE   56  50  80 NE13      30.14R
NORFOLK NAVAL  CLOUDY    56  51  84 E8        30.17R
WEST POINT*    CLOUDY    53  50  87 CALM      30.19R
SALUDA*        CLOUDY    52  50  94 NE5       30.16S
NEWPORT NEWS   CLOUDY    55  51  86 NE7       30.16R
LANGLEY AFB    CLOUDY    55  52  91 NE8       30.15R
FORT EUSTIS    CLOUDY    55  53  94 VRB3      30.15R
WILLIAMSBURG*  PTSUNNY   55  52  88 CALM      30.18R
HR EXEC AP*    CLOUDY    55  52  88 NE6       30.17R
FRANKLIN*      CLOUDY    54  51  89 NE7       30.16R
US460-WAKEFLD  CLOUDY    55  51  86 CALM      30.16R
$$

VAZ020-022-025-037-045-301300-
WEST CENTRAL AND SOUTHWEST VIRGINIA

CITY           SKY/WX    TMP DP  RH WIND       PRES   REMARKS
STAUNTON*      CLOUDY    54  54 100 NE5       30.16S FOG
WAYNESBORO*    CLOUDY    51  50  95 MISG      30.14S
HOT SPRINGS VA RAIN      50  50 100 E5        30.12R VSB<1/4
LYNCHBURG      CLOUDY    53  53 100 VRB5      30.15S
DANVILLE       CLOUDY    57  50  78 E6        30.13R HAZE
SOUTH BOSTON*  CLOUDY    56  55  95 E6        30.14R
MARTINSVILLE   CLOUDY    54  53  99 NE3       30.15R FOG
ROANOKE        CLOUDY    55  53  93 SE8       30.14R
BLACKSBURG     FOG       55  55  99 E5        30.15R VSB 1/4
DUBLIN*        CLOUDY    58  56  95 E8        30.12S
MARION*        PTSUNNY   57  55  92 E7        30.12R
HILLSVILLE*    CLOUDY    55  52  92 CALM      30.11R
RICHLANDS*     FAIR      62  49  64 SE6       30.05S
WISE*          PTSUNNY   59  45  58 CALM      30.06R
ABINGDON*      FAIR      63  51  64 E12       30.04R
$$

MDZ021>025-VAZ099-100-301300-
SOUTHERN MARYLAND AND THE DELMARVA PENINSULA

CITY           SKY/WX    TMP DP  RH WIND       PRES   REMARKS
PATUXENT RIVER CLOUDY    51  46  83 NE9       30.17R
BAY BRIDGE APT NOT AVBL
LEONARDTOWN    CLOUDY    50  46  87 E3        30.19R
DOVER          CLOUDY    49  49 100 N8        30.19R
GEORGETOWN     CLOUDY    49  48  97 NE8       30.19R
EASTON         CLOUDY   N/A N/A N/A NE9       30.22R
CAMBRIDGE      CLOUDY    46  45  93 NE8       30.18R
SALISBURY      CLOUDY    50  48  93 NE8       30.17R FOG
OCEAN CITY     CLOUDY    51  48  89 NE9       30.18R
WALLOPS ISLAND CLOUDY    51  49  92 NE9       30.17R
ACCOMACK*      CLOUDY    50  34  53 NE6       30.17R
$$

NCZ012>017-030>032-301300-
NORTH CENTRAL AND EASTERN NORTH CAROLINA

CITY           SKY/WX    TMP DP  RH WIND       PRES   REMARKS
ROANOKE RAPIDS CLOUDY    55  54  94 NE5       30.14R
RALEIGH        CLOUDY    58  56  93 E8        30.13R
ELIZABETH CITY CLOUDY    55  53  93 N14       30.14R
AHOSKIE*       CLOUDY    55  53  93 N5        30.14S
EDENTON*       CLOUDY    57  57  99 NE3       30.15R
CURRITUCK*     CLOUDY    55  53  94 NE10      30.15R
KILL DEVIL HLS CLOUDY    55  54  95 NE8       30.12R
MANTEO         NOT AVBL
CAPE HATTERAS  CLOUDY    58  54  86 NE10G18   30.12R
TARBORO*       CLOUDY    58  55  89 CALM      30.14R
GOLDSBORO      CLOUDY    57  57 100 E9        30.12R
WASHINGTON     CLOUDY    56  54  91 NE3       30.14R
GREENVILLE     CLOUDY    57  55  94 E6        30.14R
NEW BERN       CLOUDY    58  54  86 E5        30.14S
WILMINGTON     PTSUNNY   63  60  90 NE7       30.09R
$$

VAZ048-301300-
ELSEWHERE

CITY           SKY/WX    TMP DP  RH WIND       PRES   REMARKS
HARRISBURG PA  CLOUDY    46  41  82 NE5       30.21R
BALTIMORE      CLOUDY    49  44  83 NE10      30.19R
ANNAPOLIS      CLOUDY    50  46  86 MISG      30.20R
ANDREWS AFB    CLOUDY    49  47  91 NE8       30.17R
PHILADELPHIA   CLOUDY    50  38  63 NE10      30.22R
HENDERSON NC   CLOUDY    57  57 100 E7        30.13R
GREENSBORO     DRIZZLE   59  58  96 E12       30.09R FOG
ROCKY MOUNT    CLOUDY    58  55  90 NE6       30.13R
$$

VAZ100-301300-
MARINE

STATION/POSITION TIME  TEMP    WIND        PRES    WAVE   SWELL
                       AIR SEA DIR/SP/G            HT/PER HT/PER
                 (UTC) (F)     (DEG/KT/KT) (MB)    (FT/S) (FT/S)
BRANDYWINE LGT   1100   49      50/ 12/ 14 1021.7R
CAPE MAY NJ      1100   49 56   40/  6/  9 1021.5R
LEWES DE         1100   50 54   50/ 14/ 15 1021.5R
15NM E FENWICK I 1150   49 51              1021.1R   7/ 9
OCEAN-CITY-INLET 1100   50 53   30/  6/ 11 1020.2R
WACHAPREAGUE VA  1100   51 57   20/  4/  5 1020.6R
THOMAS POINT MD  1200   49 57   50/ 11/ 12 1023.5R
GOOSES REEF MD   1100   51 56   60/ 10/ 12 1022.3R   1/ 2
COVE POINT MD    1100   49      70/ 10/ 12 1021.9R
SOLOMONS ISLAND  1100   50 59   50/  7/  9   N/A
BISHOPS HEAD MD  1100   50 56   40/  9/ 14 1020.2R
PINEY POINT MD   1100           60/  4/  5   N/A
POTOMAC MD       1100   51 58   50/  8/ 10 1020.1R   1/ 2
CAMBRIDGE MD     1100   49 59   40/  9/ 10 1020.8R
LEWISETTA VA     1100   52 59   80/  7/  8 1021.0R
RAPPAHANNOCK LGT 1100           60/  7/  9 1021.6R
STINGRAY PT      1100   53 60   40/ 12/ 16 1021.2R   2/ 3
YORK RVR RNG VA  1100   55      20/ 11/ 13 1020.2R
YORKTOWN VA      1100   55 62   40/  7/ 10 1020.7R
JAMESTOWN VA     1100   54 66   50/  6/  8   N/A     0
DOMINION TERM VA 1100   56      40/  3/  6 1020.5R
KIPTOPEKE VA     1100      59   20/  4/  6   N/A
CHES BAY BRIDGE  1100   54 58   30/ 12/ 13 1020.2R
CAPE HENRY VA    1100   53      20/ 13/ 15   N/A
CHESAPEAKE LGHT  1100   52      30/ 15/ 16 1020.8R
WILLOUBY STN VA  1100   55      50/  9/ 12 1021.5R
CAPE HENRY BUOY  1112      55                N/A     5/ 9   2/11
CAPE CHARLES BUO 1126      56                N/A     5/10   3/10
OFFSHORE WE BUOY 1121      53                N/A     6/ 8   5/ 8
64NM E OF VA BCH 1150   51 53   20/ 16/ 17 1019.7R   7/ 9   5/ 9
DUCK PIER NC     1100   54 66   20/ 15/ 17 1019.1R
44100 DUCK FRF   1124      56                N/A     5/10   2/11
44056 DUCK FRF   1111      58                N/A     4/ 5   2/11
OREGON INLET NC  1100   55 63   10/ 11/ 16 1019.2R
HATTERAS NC      1100   59 69  360/ 17/ 21 1019.0R
DIAMOND SHLS NC  1150   59 74   20/ 16/ 19 1019.5R   5/ 9   3/ 9
CAPE LOOKOUT NC  1200   61      40/ 12/ 14C1F1C2F2C3F3C4F4C5F5C6F6C7F7C8M1C9!



USA.gov is the U.S. government's official web portal to all federal, state and local government web resources and services.